Language: 


Des rapports , des résumés tant et plus, au choix de chacun....


Données Historiques de Météogheer
 
Journalier Rapport pour Aoûut 20, 2018 Unitée:  Métrique    Impériale   Les deux
Suivant Jour »
Journalier Hebdomadaire Mensuel Annuel Sur mesure
  Actuel: Max: Min: Moyenne:
Température: 18.5 °C 18.9 °C 18.5 °C 18.7 °C
Point de rosée: 17.0 °C 17.0 °C 17.0 °C 17 °C
Humidité: 90% 90% 87% 89%
Vent: 11.9km/h 15.8km/h 4.0km/h 9.8km/h
Rafales: 19.5km/h 19.5km/h - -
VentWSW - - SW
Pression: 1019.0 hPa 1019.0 hPa 1018.0 hPa -
Pluie: 0.0 mm      
Historical Graphs
 
 
Données tabulaires pour Aoûut 20, 2018
Heure Température Point de rosée Pression Vent Vent Rafales Humidité Pluie Taux (Horaire) Conditions
00:00 18.9 °C 17.0 °C 1019.0 hPa WSW 6.4 km/h 14.0 km/h 87% 0.0 mm
00:05 18.9 °C 17.0 °C 1019.0 hPa SW 9.7 km/h 17.2 km/h 87% 0.0 mm
00:10 18.9 °C 17.0 °C 1019.0 hPa WSW 8.7 km/h 17.2 km/h 87% 0.0 mm
00:15 18.9 °C 17.0 °C 1019.0 hPa WSW 12.2 km/h 16.6 km/h 87% 0.0 mm
00:20 18.9 °C 17.0 °C 1019.0 hPa SW 12.2 km/h 17.7 km/h 88% 0.0 mm
00:25 18.9 °C 17.0 °C 1019.0 hPa SW 7.9 km/h 17.7 km/h 88% 0.0 mm
00:30 18.9 °C 17.0 °C 1019.0 hPa WSW 13.0 km/h 17.2 km/h 88% 0.0 mm
00:35 18.9 °C 17.0 °C 1019.0 hPa WSW 10.5 km/h 17.2 km/h 88% 0.0 mm
00:40 18.9 °C 17.0 °C 1019.0 hPa SSW 15.8 km/h 17.7 km/h 88% 0.0 mm
00:45 18.9 °C 17.0 °C 1019.0 hPa SW 9.0 km/h 17.7 km/h 88% 0.0 mm
00:50 18.9 °C 17.0 °C 1019.0 hPa WSW 12.2 km/h 16.6 km/h 88% 0.0 mm
00:55 18.9 °C 17.0 °C 1019.0 hPa SW 8.7 km/h 16.6 km/h 88% 0.0 mm
01:00 18.9 °C 17.0 °C 1019.0 hPa WSW 6.9 km/h 14.0 km/h 88% 0.0 mm
01:05 18.8 °C 17.0 °C 1019.0 hPa WSW 11.6 km/h 16.3 km/h 88% 0.0 mm
01:10 18.8 °C 17.0 °C 1019.0 hPa WSW 12.2 km/h 17.7 km/h 88% 0.0 mm
01:15 18.8 °C 17.0 °C 1019.0 hPa West 9.0 km/h 17.7 km/h 88% 0.0 mm
01:20 18.8 °C 17.0 °C 1019.0 hPa WSW 9.0 km/h 15.8 km/h 88% 0.0 mm
01:25 18.8 °C 17.0 °C 1019.0 hPa WSW 6.4 km/h 13.7 km/h 88% 0.0 mm
01:30 18.8 °C 17.0 °C 1019.0 hPa WSW 15.8 km/h 15.8 km/h 88% 0.0 mm
01:35 18.8 °C 17.0 °C 1019.0 hPa WSW 13.7 km/h 15.8 km/h 89% 0.0 mm
01:40 18.8 °C 17.0 °C 1019.0 hPa WSW 5.0 km/h 15.8 km/h 89% 0.0 mm
01:45 18.7 °C 17.0 °C 1019.0 hPa WSW 7.9 km/h 15.4 km/h 89% 0.0 mm
01:50 18.7 °C 17.0 °C 1019.0 hPa WSW 9.7 km/h 17.2 km/h 89% 0.0 mm
01:55 18.7 °C 17.0 °C 1019.0 hPa WSW 9.3 km/h 17.2 km/h 89% 0.0 mm
02:00 18.7 °C 17.0 °C 1019.0 hPa SW 9.0 km/h 15.8 km/h 89% 0.0 mm
02:05 18.7 °C 17.0 °C 1019.0 hPa SW 10.1 km/h 15.8 km/h 89% 0.0 mm
02:10 18.7 °C 17.0 °C 1019.0 hPa SSW 13.7 km/h 14.3 km/h 89% 0.0 mm
02:15 18.7 °C 17.0 °C 1019.0 hPa WSW 10.8 km/h 14.3 km/h 89% 0.0 mm
02:20 18.7 °C 17.0 °C 1019.0 hPa SSW 9.3 km/h 13.0 km/h 90% 0.0 mm
02:25 18.7 °C 17.0 °C 1019.0 hPa WSW 4.0 km/h 13.0 km/h 89% 0.0 mm
02:30 18.7 °C 17.0 °C 1019.0 hPa WSW 11.6 km/h 14.0 km/h 90% 0.0 mm
02:35 18.6 °C 17.0 °C 1019.0 hPa SSW 5.8 km/h 16.6 km/h 90% 0.0 mm
02:40 18.6 °C 17.0 °C 1018.0 hPa WSW 12.2 km/h 16.6 km/h 90% 0.0 mm
02:45 18.6 °C 17.0 °C 1018.0 hPa WSW 9.3 km/h 14.8 km/h 90% 0.0 mm
02:50 18.6 °C 17.0 °C 1018.0 hPa SW 9.0 km/h 16.3 km/h 90% 0.0 mm
02:55 18.6 °C 17.0 °C 1018.0 hPa SSW 9.0 km/h 16.3 km/h 90% 0.0 mm
03:00 18.6 °C 17.0 °C 1018.0 hPa SSW 8.7 km/h 14.0 km/h 90% 0.0 mm
03:05 18.6 °C 17.0 °C 1018.0 hPa WSW 6.1 km/h 10.5 km/h 90% 0.0 mm
03:10 18.6 °C 17.0 °C 1018.0 hPa SSW 5.8 km/h 13.7 km/h 90% 0.0 mm
03:15 18.6 °C 17.0 °C 1018.0 hPa SSW 9.0 km/h 13.7 km/h 90% 0.0 mm
03:20 18.6 °C 17.0 °C 1018.0 hPa South 13.0 km/h 13.0 km/h 90% 0.0 mm
03:25 18.5 °C 17.0 °C 1019.0 hPa WSW 10.5 km/h 16.6 km/h 90% 0.0 mm
03:30 18.5 °C 17.0 °C 1019.0 hPa SSW 9.7 km/h 19.5 km/h 90% 0.0 mm
03:35 18.5 °C 17.0 °C 1019.0 hPa WSW 11.9 km/h 19.5 km/h 90% 0.0 mm
Données Historique de Météo Turbie

Mise a jour : 20/08/2018 03:42:11
Généré par Cumulus 1.9.4 (1099)